Ogden, UT

3:40 AM MDT on June 28, 2017 (GMT -0600)
Ogden-Hinckley

Weather History for KOGD - November, 2012

Change the Weather History Date:

Monday, November 5, 2012

  Actual Average Record
Temperature  
Mean Temperature 50 °F -  
Max Temperature 60 °F 56 °F 70 °F (1999)
Min Temperature 39 °F 31 °F 15 °F (1959)
Degree Days  
Heating Degree Days 16    
Moisture  
Dew Point 35 °F    
Average Humidity 62    
Maximum Humidity 74    
Minimum Humidity 41    
Precipitation  
Precipitation 0.00 in - - ()
Sea Level Pressure  
Sea Level Pressure 30.35 in    
Wind  
Wind Speed 6 mph (South)    
Max Wind Speed 9 mph    
Max Gust Speed -    
Visibility 10 miles    
Events      
Averages and records for this station are not official NWS values.
T = Trace of Precipitation, MM = Missing Value Source: NWS Daily Summary

Daily Weather History Graph

Daily Weather History Graph

Search for Another Location

Airport or City:

Trip Planner

Search our weather history database for the weather conditions in past years. The results will help you decide how hot, cold, wet, or windy it might be!

Date:

Astronomy

Nov. 05, 2012 Rise Set
Actual Time 7:04 AM MST 5:18 PM MST
Civil Twilight 6:35 AM MST 5:47 PM MST
Nautical Twilight 6:02 AM MST 6:19 PM MST
Astronomical Twilight 5:30 AM MST 6:52 PM MST
Moon 10:59 PM MST (11/5) 12:26 PM MST (11/5)
Length of Visible Light 11h 11m
Length of Day
10h 13m
Waning Gibbous, 62% of the Moon is Illuminated
Nov 5
Waning Gibbous
Nov 6
Last Quarter
Nov 13
New
Nov 20
First Quarter
Nov 28
Full

Hourly Weather History & Observations

Time (MST) Temp. Windchill Dew Point Humidity Pressure Visibility Wind Dir Wind Speed Gust Speed Precip Events Conditions
12:53 AM 44.1 °F 39.5 °F 33.1 °F 65% 30.36 in 10.0 mi South 8.1 mph - N/A   Clear
1:53 AM 42.1 °F 37.1 °F 32.0 °F 67% 30.37 in 10.0 mi South 8.1 mph - N/A   Clear
2:53 AM 41.0 °F 37.1 °F 32.0 °F 70% 30.37 in 10.0 mi South 5.8 mph - N/A   Clear
3:53 AM 41.0 °F 35.2 °F 32.0 °F 70% 30.35 in 10.0 mi South 9.2 mph - N/A   Clear
4:53 AM 41.0 °F 35.8 °F 32.0 °F 70% 30.37 in 10.0 mi South 8.1 mph - N/A   Clear
5:53 AM 39.9 °F 34.5 °F 30.9 °F 70% 30.38 in 10.0 mi South 8.1 mph - N/A   Clear
6:53 AM 41.0 °F 35.8 °F 30.9 °F 67% 30.38 in 10.0 mi South 8.1 mph - N/A   Clear
7:53 AM 41.0 °F 35.2 °F 30.9 °F 67% 30.41 in 10.0 mi South 9.2 mph - N/A   Clear
8:53 AM 46.9 °F - 32.0 °F 56% 30.43 in 10.0 mi Calm Calm - N/A   Clear
9:53 AM 51.1 °F - 34.0 °F 52% 30.42 in 10.0 mi ENE 3.5 mph - N/A   Clear
10:53 AM 55.0 °F - 34.0 °F 45% 30.38 in 10.0 mi SSE 5.8 mph - N/A   Clear
11:53 AM 57.9 °F - 34.0 °F 41% 30.36 in 10.0 mi Calm Calm - N/A   Clear
12:53 PM 60.1 °F - 36.0 °F 41% 30.32 in 10.0 mi Variable 3.5 mph - N/A   Clear
1:53 PM 59.0 °F - 35.1 °F 41% 30.33 in 10.0 mi WNW 4.6 mph - N/A   Clear
2:53 PM 57.0 °F - 41.0 °F 55% 30.33 in 10.0 mi North 6.9 mph - N/A   Clear
3:53 PM 55.9 °F - 41.0 °F 57% 30.32 in 10.0 mi Calm Calm - N/A   Clear
4:53 PM 57.0 °F - 41.0 °F 55% 30.31 in 10.0 mi Calm Calm - N/A   Clear
5:53 PM 53.1 °F - 41.0 °F 64% 30.32 in 10.0 mi Calm Calm - N/A   Clear
6:53 PM 48.0 °F - 39.9 °F 74% 30.34 in 10.0 mi Calm Calm - N/A   Clear
7:53 PM 48.0 °F - 39.9 °F 74% 30.33 in 10.0 mi SSE 3.5 mph - N/A   Clear
8:53 PM 45.0 °F 41.8 °F 37.0 °F 74% 30.33 in 10.0 mi South 5.8 mph - N/A   Clear
9:53 PM 46.0 °F 41.9 °F 35.1 °F 66% 30.32 in 10.0 mi South 8.1 mph - N/A   Clear
10:53 PM 45.0 °F 41.2 °F 35.1 °F 68% 30.32 in 10.0 mi South 6.9 mph - N/A   Clear
11:53 PM 44.1 °F 39.5 °F 35.1 °F 71% 30.30 in 10.0 mi South 8.1 mph - N/A   Clear